Home   Weather   Hamamatsu   Past weeks

Flag for Japan Past Weather in Hamamatsu, Japan — Yesterday and Last 2 Weeks

Now
75 °F

Mild.


Feels Like: 74 °F
Forecast: 72 / 83 °F
Wind: 6 mph from Northeast

Location: Omaezaki

Current Time: Sep 27, 2016 at 2:34:27 AM

Latest Report: Sep 27, 2016 at 1:00 AM


Visibility: 11 mi

Pressure: 30.11 "Hg

Humidity: 95%

Dew Point: 74 °F

Location of HamamatsuLocation

Past Weather in Hamamatsu — Graph

°F

Hamamatsu Temperature Yesterday

Maximum temperature yesterday: 82 °F (at 1:00 PM)
Minimum temperature yesterday: 72 °F (at 2:00 AM)
Average temperature yesterday: 76 °F

High & Low Weather Summary for the Past Weeks

 TemperatureHumidityPressure
High83 °F (Sep 19, 1:00 PM)99% (Sep 23, 2:00 AM)30.14 "Hg (Sep 23, 2:00 AM)
Low69 °F (Sep 20, 11:00 PM)66% (Sep 25, 12:00 PM)29.61 "Hg (Sep 20, 4:00 PM)
Average76 °F89%29.97 "Hg
* Reported Sep 12 1:00 AM — Sep 27 1:00 AM, Hamamatsu, Weather by CustomWeather, © 2016

Note: Actual official high and low records may vary slightly from our data, if they occured in-between our weather recording intervals... More about our weather records

Advertising

Hamamatsu Weather History for the Previous 24 Hours

Scroll right to see more
 ConditionsComfort  
Time TempWeatherWind HumidityBarometerVisibility
1:00 AM
Tue, Sep 27
75 °FMild.6 mph95%30.11 "Hg11 mi
12:00 AM75 °FMild.7 mph95%30.12 "Hg7 mi
11:00 PM
Mon, Sep 26
75 °FMild.2 mph95%30.13 "Hg9 mi
10:00 PM76 °FFog.3 mph95%30.13 "Hg6 mi
9:00 PM76 °FMild.3 mph95%30.12 "Hg8 mi
8:00 PM76 °FFog.5 mph95%30.13 "Hg6 mi
7:00 PM77 °FMild.7 mph93%30.11 "Hg11 mi
6:00 PM77 °FWarm.9 mph92%30.10 "Hg10 mi
5:00 PM78 °FWarm.6 mph87%30.09 "Hg12 mi
4:00 PM80 °FWarm.8 mph81%30.09 "Hg12 mi
3:00 PM82 °FWarm.8 mph78%30.08 "Hg12 mi
2:00 PM82 °FWarm.6 mph78%30.09 "Hg12 mi
1:00 PM82 °FWarm.3 mph75%30.09 "Hg12 mi
12:00 PM79 °FLight rain. Cloudy.3 mph86%30.11 "Hg12 mi
11:00 AM77 °FWarm.6 mph83%30.13 "Hg12 mi
10:00 AM77 °FWarm.8 mph80%30.14 "Hg12 mi
9:00 AM78 °FWarm.8 mph83%30.12 "Hg12 mi
8:00 AM75 °FMild.9 mph87%30.11 "Hg12 mi
7:00 AM73 °FMild.6 mph94%30.11 "Hg12 mi
6:00 AM72 °FMild.6 mph96%30.11 "Hg12 mi
5:00 AM72 °FMild.6 mph96%30.10 "Hg12 mi
4:00 AM72 °FMild.7 mph96%30.08 "Hg12 mi
3:00 AM72 °FMild.6 mph97%30.08 "Hg12 mi
2:00 AM72 °FMild.6 mph97%30.08 "Hg10 mi
Weather by CustomWeather, © 2016

See weather overviewHow to use our weather pages